Location: Hillern
(53.0557°N, 9.8577°E)
Time: 07:36:44
(UTC+00:00)

BREEZE-M R/B - Pass Details

Date: 19 May 2025
Orbit: 537 x 26535 km, 49.1° (Epoch: 22 June)

Event Time Altitude Azimuth Distance (km) Brightness Sun altitude
Rises 19:25:20 0° 264° (W) 16,635 10.6 -1.6°
Reaches altitude 10° 19:46:16 10° 267° (W) 10,750 9.6 -4.0°
Maximum altitude 20:11:11 70° 190° (S) 1,651 4.6 -6.7°
Drops below altitude 10° 20:16:14 10° 107° (ESE) 2,485 5.1 -7.2°
Enters shadow 20:17:06 - 105° (ESE) 2,852 5.4 -7.3°
